TimeIST,TemperatureF,Dew PointF,Humidity,Sea Level PressureIn,VisibilityMPH,Wind Direction,Wind SpeedMPH,Gust SpeedMPH,PrecipitationIn,Events,Conditions,WindDirDegrees,DateUTC
12:10 AM,86.0,71.6,62,29.83,3.7,South,3.5,-,N/A,,Unknown,180,2013-04-01 18:40:00
12:40 AM,84.2,71.6,66,29.83,3.7,SSE,3.5,-,N/A,,Unknown,150,2013-04-01 19:10:00
1:10 AM,84.2,71.6,66,29.80,3.7,SSE,4.6,-,N/A,,Unknown,150,2013-04-01 19:40:00
1:40 AM,84.2,71.6,66,29.80,3.7,SSE,3.5,-,N/A,,Unknown,160,2013-04-01 20:10:00
2:10 AM,84.2,71.6,66,29.80,3.7,South,3.5,-,N/A,,Unknown,170,2013-04-01 20:40:00
2:30 AM,82,72,64,29.79,2,SE,2.3,,,,Haze,140,2013-04-01 21:00:00
2:40 AM,82.4,71.6,70,29.80,3.7,Calm,Calm,-,N/A,,Unknown,0,2013-04-01 21:10:00
3:10 AM,82.4,71.6,70,29.80,3.7,East,2.3,-,N/A,,Unknown,80,2013-04-01 21:40:00
3:40 AM,82.4,71.6,70,29.80,3.7,Variable,2.3,-,N/A,,Partly Cloudy,0,2013-04-01 22:10:00
4:40 AM,80.6,71.6,74,29.80,3.1,East,2.3,-,N/A,,Haze,100,2013-04-01 23:10:00
5:10 AM,80.6,71.6,74,29.80,3.1,Calm,Calm,-,N/A,,Haze,0,2013-04-01 23:40:00
5:30 AM,80,73,74,29.81,1,East,2.3,,,,Haze,90,2013-04-02 00:00:00
5:40 AM,78.8,73.4,83,29.80,2.5,ESE,2.3,-,N/A,,Haze,110,2013-04-02 00:10:00
6:40 AM,80.6,73.4,79,29.83,1.6,SE,2.3,-,N/A,,Haze,140,2013-04-02 01:10:00
7:10 AM,82.4,73.4,74,29.86,1.6,Calm,Calm,-,N/A,,Haze,0,2013-04-02 01:40:00
7:40 AM,84.2,73.4,70,29.86,1.6,SSW,3.5,-,N/A,,Haze,200,2013-04-02 02:10:00
8:10 AM,84.2,73.4,70,29.86,1.9,SSW,2.3,-,N/A,,Haze,200,2013-04-02 02:40:00
8:30 AM,87,75,61,29.87,2,South,3.5,,,,Haze,180,2013-04-02 03:00:00
8:40 AM,86.0,73.4,66,29.89,1.9,South,4.6,-,N/A,,Haze,180,2013-04-02 03:10:00
9:10 AM,87.8,73.4,62,29.89,2.5,SSW,3.5,-,N/A,,Haze,200,2013-04-02 03:40:00
10:10 AM,91.4,73.4,55,29.89,3.1,SW,3.5,-,N/A,,Haze,220,2013-04-02 04:40:00
10:40 AM,93.2,73.4,52,29.89,3.7,WSW,4.6,-,N/A,,Scattered Clouds,250,2013-04-02 05:10:00
11:10 AM,93.2,73.4,52,29.86,3.7,WSW,2.3,-,N/A,,Scattered Clouds,240,2013-04-02 05:40:00
11:30 AM,96,70,34,29.86,2,SE,4.6,,,,Haze,140,2013-04-02 06:00:00
11:40 AM,96.8,71.6,44,29.86,3.7,South,5.8,-,N/A,,Scattered Clouds,180,2013-04-02 06:10:00
12:10 PM,96.8,71.6,44,29.86,5.0,SSW,4.6,-,N/A,,Scattered Clouds,210,2013-04-02 06:40:00
12:40 PM,98.6,71.6,42,29.83,5.0,South,4.6,-,N/A,,Scattered Clouds,180,2013-04-02 07:10:00
1:10 PM,98.6,71.6,42,29.80,6.2,SSE,3.5,-,N/A,,Scattered Clouds,150,2013-04-02 07:40:00
1:40 PM,100.4,69.8,37,29.80,6.2,SSW,2.3,-,N/A,,Scattered Clouds,200,2013-04-02 08:10:00
2:10 PM,102.2,69.8,35,29.77,5.0,Variable,5.8,-,N/A,,Scattered Clouds,0,2013-04-02 08:40:00
2:30 PM,101,65,22,29.74,2,,4.6,,,,Haze,,2013-04-02 09:00:00
2:40 PM,102.2,68.0,33,29.74,5.0,Variable,3.5,-,N/A,,Scattered Clouds,0,2013-04-02 09:10:00
3:10 PM,102.2,66.2,31,29.74,5.0,Variable,3.5,-,N/A,,Scattered Clouds,0,2013-04-02 09:40:00
3:40 PM,102.2,66.2,31,29.71,5.0,South,3.5,-,N/A,,Scattered Clouds,190,2013-04-02 10:10:00
4:10 PM,100.4,68.0,35,29.71,5.0,SE,8.1,-,N/A,,Scattered Clouds,140,2013-04-02 10:40:00
4:40 PM,100.4,68.0,35,29.71,5.0,SE,4.6,-,N/A,,Scattered Clouds,140,2013-04-02 11:10:00
5:10 PM,100.4,68.0,35,29.71,5.0,South,6.9,-,N/A,,Scattered Clouds,170,2013-04-02 11:40:00
5:30 PM,98,68,29,29.71,2,SE,11.5,,,,Haze,140,2013-04-02 12:00:00
5:40 PM,98.6,69.8,39,29.71,5.0,SE,10.4,-,N/A,,Partly Cloudy,140,2013-04-02 12:10:00
6:10 PM,95.0,71.6,47,29.74,5.0,SSE,11.5,-,N/A,,Scattered Clouds,160,2013-04-02 12:40:00
6:40 PM,93.2,73.4,52,29.74,3.7,SSE,11.5,-,N/A,,Scattered Clouds,160,2013-04-02 13:10:00
7:10 PM,91.4,73.4,55,29.77,3.7,SSE,11.5,-,N/A,,Partly Cloudy,160,2013-04-02 13:40:00
7:40 PM,89.6,73.4,59,29.77,3.7,SSE,10.4,-,N/A,,Partly Cloudy,150,2013-04-02 14:10:00
8:10 PM,86.0,73.4,66,29.80,3.7,SSE,8.1,-,N/A,,Partly Cloudy,150,2013-04-02 14:40:00
8:30 PM,88,72,50,29.79,2,SE,4.6,,,,Haze,140,2013-04-02 15:00:00
8:40 PM,86.0,73.4,66,29.80,3.7,SE,12.7,-,N/A,,Partly Cloudy,140,2013-04-02 15:10:00
9:10 PM,86.0,73.4,66,29.80,3.7,SSE,9.2,-,N/A,,Partly Cloudy,150,2013-04-02 15:40:00
9:40 PM,84.2,73.4,70,29.80,3.7,SE,5.8,-,N/A,,Partly Cloudy,130,2013-04-02 16:10:00
10:10 PM,84.2,75.2,74,29.83,3.7,SE,9.2,-,N/A,,Partly Cloudy,140,2013-04-02 16:40:00
10:40 PM,84.2,75.2,74,29.83,3.7,SSE,8.1,-,N/A,,Partly Cloudy,160,2013-04-02 17:10:00
11:10 PM,82.4,73.4,74,29.83,3.7,South,6.9,-,N/A,,Partly Cloudy,170,2013-04-02 17:40:00
11:30 PM,85,73,61,29.83,2,SSE,2.3,,,,Haze,160,2013-04-02 18:00:00
11:40 PM,82.4,73.4,74,29.83,3.7,SSE,5.8,-,N/A,,Partly Cloudy,150,2013-04-02 18:10:00